Location: *
(51.5000°N, 0.1100°W)
Time: 16:06:40
(UTC+00:00)

USA 267 - Pass Details

Date: 25 May 2024
Orbit: 1100 x 1107 km, 123.0° (Epoch: 21 May)

Event Time Altitude Azimuth Distance (km) Brightness Sun altitude
Rises 00:33:45 0° 58° (ENE) 3,923 6.8 -17.1°
Reaches altitude 10° 00:36:15 10° 61° (ENE) 2,963 6.0 -17.0°
Maximum altitude 00:42:47 69° 145° (SE) 1,172 3.2 -16.8°
Enters shadow 00:47:52 18° 226° (SW) 2,426 4.6 -16.7°
